[[{"header":{"parameterUnit":"m.s-1","parameterCategory":1,"la1":30.2991,"la2":30.254,"lo1":-89.0895,"lo2":-89.0444,"dy":0.0017,"dx":0.0017,"nx":28,"ny":28,"refTime":"2026-02-18T03:00:00:Z","depth":0,"parameterNumber":2,"parameterNumberName":"U-component_of_WINDS"},"data":[0,0,0,0,0,0,0,0,0,0,0,0,0,0,0,0,0,0,0,0,0,0,0,0,0,0,0,0,0,0,0,0,0,0,0,0,0,0,0,0,0,0,0,0,0,0,0,0,0,0,0,0,0,0,0,0,0,0,1.0321,1.0321,0,1.0333,1.0333,1.0333,1.0292,1.0291,1.029,1.0289,1.0303,1.0304,1.0306,0,0,0,0,0,0,0,0,0,0,0,0,0,1.0266,1.0267,1.0321,1.0321,1.0322,1.0333,1.0333,1.0333,1.0293,1.0291,1.029,1.0288,1.0302,1.0304,1.0306,0,0,0,0,0,0,0,0,0,0,0,0,0,1.0285,1.0268,1.0321,1.0303,1.0301,1.0333,1.0333,1.0333,1.0293,1.0291,1.0289,1.0287,1.0302,1.0304,1.0306,1.0357,0,0,1.0313,1.0314,0,0,0,0,0,0,0,0,1.0284,1.0287,1.0305,1.0304,1.0302,1.0309,1.0319,1.0341,1.0293,1.0296,1.0289,1.0287,1.0307,1.0308,1.0315,1.0358,1.0358,1.0313,1.0315,1.0316,1.0316,0,0,0,0,0,0,0,1.0283,1.0286,1.0326,1.0306,1.0304,1.0294,1.0295,1.0323,1.0312,1.0296,1.0293,1.0294,1.0306,1.0313,1.0315,1.0359,1.0313,1.0315,1.0317,1.0318,1.0444,1.0446,0,0,0,0,0,0,1.0284,1.0286,1.0325,1.0326,1.0288,1.0297,1.0297,1.0309,1.0311,1.031,1.0296,1.0293,1.031,1.0312,1.0315,1.0375,1.0316,1.0318,1.0319,1.0442,1.0445,1.0447,0,0,0,0,0,0,1.0283,1.0288,1.0325,1.0305,1.0309,1.03,1.0313,1.031,1.0317,1.0311,1.0309,1.0305,1.0308,1.0312,1.0347,1.0375,1.0319,1.0321,1.044,1.0443,1.0446,1.0495,0,0,0,0,0,0,1.0281,1.0287,1.0306,1.0306,1.031,1.0356,1.0314,1.0312,1.0321,1.0316,1.032,1.0318,1.0307,1.0344,1.0349,1.0377,1.0323,1.0437,1.0441,1.0445,1.0491,1.0499,1.0507,0,0,0,0,0,1.0279,1.032,1.0307,1.0313,1.0334,1.0358,1.0361,1.0346,1.0323,1.0342,1.0339,1.0318,1.0371,1.0348,1.0353,1.0382,1.0435,1.044,1.0444,1.0487,1.0498,1.0506,0,0,0,0,0,0,1.0325,1.032,1.0306,1.0347,1.0353,1.0351,1.0375,1.0357,1.0371,1.0366,1.0348,1.0349,1.0388,1.0388,1.0363,1.0432,1.0399,1.0405,1.043,1.044,1.0447,1.0447,1.0325,0,0,0,0,0,1.034,1.036,1.0354,1.0392,1.0395,1.0385,1.0395,1.0383,1.0388,1.0391,1.039,1.0397,1.0415,1.0427,1.0443,1.049,1.0491,1.0513,1.0521,1.0528,1.0533,1.0558,1.0568,1.0461,1.0461,1.0461,0,0,1.0371,1.0371,1.0384,1.0401,1.0404,1.0425,1.0387,1.0411,1.0427,1.0395,1.0428,1.0427,1.0434,1.0475,1.0493,1.0477,1.0562,1.0533,1.0538,1.054,1.0564,1.0574,1.0583,1.0464,1.0464,1.0463,0,0,1.0439,1.044,1.0472,1.0475,1.048,1.0473,1.048,1.048,1.0479,1.0511,1.0488,1.0506,1.0538,1.0543,1.055,1.0619,1.0601,1.0625,1.0667,1.0691,1.07,1.0707,1.0732,1.0741,1.0631,1.0631,1.0631,0,1.0477,1.0508,1.049,1.0516,1.0524,1.0495,1.0527,1.0532,1.0542,1.0549,1.053,1.0568,1.0571,1.0613,1.063,1.0636,1.0645,1.0625,1.07,1.0707,1.0714,1.0737,1.0747,1.0634,1.0633,1.0633,1.0633,0,1.0555,1.0576,1.0601,1.0611,1.0622,1.0651,1.0638,1.0651,1.0638,1.0633,1.0666,1.0668,1.0684,1.0693,1.0681,1.0734,1.0723,1.0703,1.067,1.0727,1.0749,1.0758,1.0638,1.0637,1.0636,1.0635,0,0,1.0652,1.0652,1.0661,1.0665,1.0668,1.0685,1.0712,1.0727,1.0739,1.0747,1.077,1.0797,1.0777,1.0785,1.0774,1.0795,1.085,1.0772,1.0771,1.0787,1.0909,1.0925,1.0936,1.0838,1.0839,1.0841,1.0908,0,1.0719,1.0765,1.075,1.0797,1.0817,1.079,1.0814,1.0819,1.0814,1.0831,1.0826,1.0846,1.0818,1.0823,1.0843,1.0839,1.0875,1.0834,1.086,1.0861,1.086,1.0947,1.0964,1.1028,1.0917,1.0918,1.0919,0,1.0803,1.0814,1.0863,1.0862,1.087,1.0892,1.0904,1.092,1.0925,1.0921,1.0929,1.0913,1.094,1.0907,1.0945,1.0917,1.0927,1.0927,1.0929,1.0931,1.0894,1.0953,1.1048,1.1058,1.0933,1.0932,1.0931,0,1.087,1.0896,1.0929,1.0934,1.0934,1.095,1.0951,1.0954,1.0964,1.0975,1.0981,1.0995,1.1003,1.1015,1.1003,1.098,1.1043,1.1008,1.1041,1.1041,1.1056,1.1055,1.1155,1.1061,1.1061,1.1061,1.106,0,1.0946,1.0977,1.0959,1.0979,1.1014,1.0996,1.1031,1.1029,1.1032,1.1051,1.1029,1.1048,1.1031,1.1048,1.1039,1.1072,1.1076,1.1073,1.1071,1.1076,1.1076,1.1082,1.1078,1.1063,1.1063,1.1062,1.1062,0,1.1026,1.1015,1.105,1.1047,1.1047,1.1072,1.107,1.1089,1.1083,1.1108,1.1113,1.1104,1.1123,1.1112,1.1133,1.1127,1.117,1.1161,1.1168,1.1166,1.1198,1.1196,1.1306,1.132,1.1217,1.1218,1.1219,0,1.1076,1.1099,1.1099,1.1111,1.1113,1.1131,1.1141,1.1125,1.1136,1.1143,1.1162,1.1179,1.1192,1.1225,1.122,1.1236,1.1227,1.1265,1.123,1.1234,1.1229,1.1227,1.123,1.1272,1.1274,1.1275,1.1275,0,1.1166,1.1159,1.1174,1.1187,1.1199,1.1208,1.1216,1.1227,1.121,1.1224,1.1244,1.1254,1.1274,1.1292,1.1305,1.1307,1.1289,1.1286,1.1295,1.13,1.1304,1.1303,1.1188,1.1284,1.1283,1.1283,1.1282,1.1282,1.1232,1.1252,1.1255,1.1272,1.1276,1.1284,1.1301,1.1297,1.1313,1.1328,1.1317,1.134,1.1345,1.136,1.1364,1.1382,1.1367,1.1379,1.1382,1.1386,1.139,1.13,1.1384,1.1384,1.1384,1.1384,1.1384,0,1.1321,1.1321,1.1337,1.1348,1.1362,1.1343,1.135,1.1363,1.1384,1.1389,1.1402,1.1425,1.1442,1.1438,1.1454,1.1469,1.1461,1.1474,1.1473,1.1473,1.1403,1.1394,1.148,1.148,1.148,1.148,1.148,1.148,1.1368,1.14,1.1394,1.1428,1.1428,1.145,1.1456,1.1463,1.1468,1.1494,1.1507,1.1505,1.1507,1.1522,1.1537,1.1535,1.1542,1.1558,1.1554,1.1488,1.1478,1.1469,1.1461,1.156,1.156,1.1623,1.1624,1.1624]},{"header":{"parameterUnit":"m.s-1","parameterCategory":1,"la1":30.2991,"la2":30.254,"lo1":-89.0895,"lo2":-89.0444,"dy":0.0017,"dx":0.0017,"nx":28,"ny":28,"refTime":"2026-02-18T03:00:00:Z","depth":0,"parameterNumber":3,"parameterNumberName":"V-component_of_WINDS"},"data":[0,0,0,0,0,0,0,0,0,0,0,0,0,0,0,0,0,0,0,0,0,0,0,0,0,0,0,0,0,0,0,0,0,0,0,0,0,0,0,0,0,0,0,0,0,0,0,0,0,0,0,0,0,0,0,0,0,0,5.5829,5.5831,0,5.6033,5.6035,5.6037,5.6074,5.6072,5.607,5.6069,5.6275,5.6282,5.6289,0,0,0,0,0,0,0,0,0,0,0,0,0,5.5467,5.5473,5.5828,5.5831,5.5834,5.6032,5.6035,5.6038,5.6074,5.6072,5.607,5.6068,5.6273,5.6281,5.629,0,0,0,0,0,0,0,0,0,0,0,0,0,5.5643,5.5475,5.5828,5.5875,5.5882,5.6032,5.6035,5.6039,5.6074,5.6072,5.6069,5.6067,5.627,5.628,5.6291,5.6407,0,0,5.6323,5.6328,0,0,0,0,0,0,0,0,5.5633,5.5656,5.5866,5.5873,5.588,5.6025,5.5984,5.6162,5.6075,5.6001,5.6069,5.6066,5.6194,5.621,5.6254,5.6417,5.6426,5.6324,5.6331,5.6335,5.6338,0,0,0,0,0,0,0,5.562,5.5647,5.5909,5.5869,5.5877,5.5886,5.5908,5.6018,5.6109,5.6007,5.6011,5.6034,5.6197,5.6244,5.6259,5.6429,5.6324,5.6333,5.634,5.6344,5.6697,5.67,0,0,0,0,0,0,5.56,5.5637,5.5903,5.5915,5.5748,5.5894,5.5919,5.5981,5.6108,5.6125,5.6036,5.6035,5.6227,5.6247,5.6267,5.6413,5.6335,5.6345,5.6351,5.6694,5.6698,5.6701,0,0,0,0,0,0,5.5592,5.5623,5.5895,5.5777,5.5812,5.5903,5.5972,5.5986,5.6034,5.613,5.6146,5.6068,5.6226,5.6252,5.6372,5.642,5.635,5.6359,5.6691,5.6695,5.67,5.6704,0,0,0,0,0,0,5.5582,5.562,5.5666,5.5778,5.5818,5.5998,5.5975,5.5992,5.6052,5.6053,5.6164,5.618,5.6226,5.6356,5.6383,5.6433,5.6368,5.6687,5.6693,5.6698,5.67,5.6708,5.6715,0,0,0,0,0,5.5569,5.5658,5.5668,5.57,5.5878,5.6,5.6023,5.6076,5.6056,5.6102,5.6164,5.6176,5.641,5.6368,5.6399,5.6453,5.6684,5.6691,5.6698,5.6697,5.6706,5.6715,0,0,0,0,0,0,5.5549,5.5674,5.5686,5.5815,5.5897,5.6006,5.6066,5.6084,5.6173,5.6169,5.6229,5.6254,5.6371,5.6424,5.6375,5.6572,5.6546,5.6559,5.6534,5.6545,5.6552,5.6537,5.6376,0,0,0,0,0,5.556,5.565,5.5753,5.5857,5.5898,5.5975,5.603,5.6063,5.615,5.6184,5.6255,5.6338,5.6431,5.649,5.658,5.6707,5.6732,5.6759,5.6767,5.6772,5.6784,5.6855,5.6869,5.6724,5.6723,5.6723,0,0,5.5583,5.5662,5.5715,5.5855,5.5923,5.6014,5.6004,5.61,5.6169,5.6199,5.6318,5.6372,5.6469,5.6593,5.6651,5.664,5.6829,5.6781,5.6785,5.6793,5.6864,5.6877,5.689,5.6728,5.6727,5.6727,0,0,5.5672,5.5741,5.5835,5.5903,5.6005,5.6056,5.6078,5.6185,5.6223,5.6343,5.6368,5.6449,5.6607,5.6675,5.673,5.6845,5.6859,5.6872,5.6912,5.6981,5.6993,5.7003,5.7045,5.706,5.6883,5.6883,5.6883,0,5.5688,5.5827,5.5881,5.5978,5.6039,5.6071,5.6167,5.623,5.6356,5.6397,5.6383,5.6582,5.6649,5.679,5.6818,5.6861,5.6889,5.6861,5.6987,5.6998,5.7008,5.7049,5.7065,5.6884,5.6884,5.6883,5.6883,0,5.5842,5.5938,5.6002,5.6124,5.6192,5.6288,5.6356,5.6418,5.6445,5.6496,5.6618,5.67,5.6808,5.6843,5.687,5.6988,5.6979,5.6975,5.6949,5.7023,5.7062,5.7078,5.6885,5.6885,5.6884,5.6884,0,0,5.5926,5.6077,5.6099,5.6156,5.6271,5.6346,5.6442,5.6549,5.6601,5.6686,5.6769,5.6902,5.6899,5.6962,5.6996,5.7057,5.7144,5.7046,5.7049,5.7063,5.7281,5.7284,5.7301,5.7153,5.7156,5.7159,5.7273,0,5.6029,5.6205,5.6256,5.6403,5.6493,5.6524,5.6609,5.6688,5.6739,5.6821,5.6877,5.6971,5.696,5.6998,5.7059,5.712,5.7189,5.7112,5.7231,5.7235,5.7208,5.7322,5.7325,5.7429,5.7288,5.7291,5.7293,0,5.6175,5.6264,5.6421,5.6525,5.6565,5.664,5.6742,5.682,5.691,5.6943,5.7013,5.7042,5.7144,5.7111,5.7252,5.7199,5.725,5.7287,5.7293,5.7307,5.727,5.734,5.7463,5.7479,5.7318,5.7316,5.7314,0,5.6222,5.6381,5.6496,5.6543,5.6667,5.6719,5.6773,5.6861,5.6921,5.701,5.705,5.7148,5.7202,5.7277,5.7332,5.7303,5.7468,5.744,5.7499,5.7497,5.7534,5.7531,5.7668,5.7563,5.7563,5.7563,5.7563,0,5.6334,5.6428,5.6519,5.659,5.6697,5.6754,5.6858,5.6913,5.6991,5.7072,5.7104,5.7179,5.7246,5.7331,5.7374,5.7484,5.7508,5.7537,5.7548,5.7536,5.7532,5.7571,5.7566,5.7567,5.7566,5.7565,5.7565,0,5.6405,5.647,5.6597,5.6704,5.6733,5.6807,5.6899,5.6968,5.702,5.7122,5.7149,5.723,5.7331,5.7393,5.752,5.7549,5.7671,5.7678,5.7641,5.7647,5.7702,5.7697,5.7871,5.7897,5.7773,5.7774,5.7775,0,5.6473,5.6547,5.6663,5.672,5.6775,5.6867,5.6929,5.6988,5.7052,5.716,5.7216,5.7319,5.7405,5.7564,5.7634,5.7732,5.7742,5.7796,5.7757,5.7743,5.7745,5.7741,5.7749,5.7803,5.7804,5.7805,5.7806,0,5.6588,5.6616,5.6706,5.6807,5.6881,5.6963,5.7045,5.7089,5.7162,5.7231,5.7336,5.7402,5.7533,5.7635,5.7738,5.7793,5.7812,5.7818,5.7837,5.7826,5.7802,5.7817,5.7661,5.7814,5.7813,5.7812,5.7812,5.7812,5.6661,5.6729,5.6821,5.692,5.6987,5.7063,5.7134,5.7195,5.7283,5.7395,5.7423,5.7533,5.7621,5.7762,5.7819,5.7905,5.7897,5.7924,5.7931,5.7937,5.7939,5.7787,5.7923,5.7923,5.7923,5.7923,5.7923,0,5.6779,5.6839,5.693,5.7044,5.7121,5.7133,5.7224,5.7288,5.7384,5.7465,5.7549,5.7669,5.7768,5.7845,5.7947,5.8,5.8012,5.8025,5.8023,5.8035,5.794,5.7914,5.8015,5.8014,5.8014,5.8014,5.8014,5.8014,5.6849,5.6964,5.7004,5.7153,5.7213,5.7321,5.7372,5.7442,5.7507,5.764,5.7723,5.7773,5.7852,5.796,5.8051,5.8071,5.8108,5.812,5.8142,5.8052,5.8042,5.8032,5.8009,5.8127,5.8127,5.823,5.8231,5.8232]}]]